Location: Eastlake (historical)
(39.0077°N, 122.6678°W)
Time: 05:29:33
(UTC+00:00)

Cosmos 2084 - Pass Details

Date: 25 November 2020
Orbit: 557 x 624 km, 62.8° (Epoch: 24 January)

Event Time Altitude Azimuth Distance (km) Brightness Sun altitude
Exits shadow 14:04:02 15° 307° (NW) 1,665 5.2 -11.8°
Maximum altitude 14:07:22 41° 242° (WSW) 901 4.1 -11.2°
Drops below altitude 10° 14:11:37 10° 172° (S) 1,987 6.5 -10.4°
Sets 14:13:59 0° 165° (SSE) 2,887 7.5 -10.0°
